Find Tianqi Xingzuo 1-30

NORAD ID: 62365 Int'l Des: 2024-245 Owner: GUOG Country: CN Constellation: tianqi operational
LEOCIRCULAR

Live Position

Loading 3D Globe...

About Tianqi Xingzuo 1-30

Description loading...

Upcoming Passes

Passes for default location (London). Set your location on the main map for personalized predictions.

Altitude History

Loading altitude history...

Two-Line Element Set

1 62365U 24245A 26104.83083513 .00000013 00000-0 97304-4 0 9994
2 62365 44.9832 243.9368 0007336 81.2044 278.9619 13.99187755 67489
Epoch: Apr 14, 2026 • Age: 11 hours

Current Status

Altitude 896.4 km
Velocity 7.41 km/s
Sub-Earth Point 3.34°N, 109.27°E
Launch Date Dec 19, 2024
Age 1.3 years
Type other

Technical Details

Classification Payload
Mass 40.00 kg
Dry Mass 40.00 kg
Total Mass 40.00 kg
Length 0.50 m
Diameter 0.30 m
Span 0.50 m
Shape Box
Manufacturer ASES
Bus Type StarLightB
Phase Status In Orbit
Owner/State GUOG/CN

Most Searched